[Iaude] MPEC U56: 2017 TS6 [a=2.18,e=0.53,i=2.0,H=28.2]

mpec at mpcdb1.cfa.harvard.edu mpec at mpcdb1.cfa.harvard.edu
Wed Oct 18 20:21:16 EDT 2017


M.P.E.C. 2017-U56                                Issued 2017 Oct. 19, 00:18 UT
 
     The Minor Planet Electronic Circulars contain information on unusual
         minor planets and routine data on comets.  They are published
    on behalf of Division F of the International Astronomical Union by the
          Minor Planet Center, Smithsonian Astrophysical Observatory,
                          Cambridge, MA 02138, U.S.A.

             Prepared using the Tamkin Foundation Computer Network

                              MPC at CFA.HARVARD.EDU
            URL http://www.minorplanetcenter.net/    ISSN 1523-6714


                                   2017 TS6
 
Observations:
     K17T06S  C2017 10 15.29617 01 26 31.92 +12 26 22.8          20.7 GUEU056G96
     K17T06S  C2017 10 15.30140 01 26 39.27 +12 27 37.3          20.9 GUEU056G96
     K17T06S  C2017 10 15.30658 01 26 46.77 +12 28 52.4          20.7 GUEU056G96
     K17T06S  C2017 10 15.31181 01 26 53.97 +12 30 04.9          21.1 GUEU056G96
     K17T06S* C2017 10 15.33635 01 27 28.68 +12 35 53.1          21.0 GUEU056G96
     K17T06S  C2017 10 15.33676 01 27 29.26 +12 35 59.1          21.1 GUEU056G96
     K17T06S  C2017 10 15.33717 01 27 29.84 +12 36 04.9          20.9 GUEU056G96
     K17T06S  C2017 10 15.33757 01 27 30.43 +12 36 10.6          20.5 GUEU056G96
     K17T06S  C2017 10 15.45539 01 30 19.20 +13 03 35.9                UEU056I52
     K17T06S  C2017 10 15.45818 01 30 23.42 +13 04 13.7                UEU056I52
     K17T06S  C2017 10 15.46099 01 30 27.61 +13 04 51.5          19.9 GUEU056I52
     K17T06S  C2017 10 15.46377 01 30 31.60 +13 05 29.6                UEU056I52
     K17T06S  C2017 10 16.24692 01 50 44.88 +16 04 31.7          21.0 RoEU056926
     K17T06S  C2017 10 16.25082 01 50 50.44 +16 05 24.7          20.8 RoEU056926
     K17T06S  C2017 10 16.25468 01 50 55.94 +16 06 16.1          20.7 RoEU056926
     K17T06S KC2017 10 18.26369902 40 08.65 +22 34 44.9          21.9 VuEU056H21
     K17T06S KC2017 10 18.27335802 40 21.30 +22 36 21.4          21.8 VuEU056H21
     K17T06S KC2017 10 18.28074702 40 30.98 +22 37 34.2          21.5 VuEU056H21
 
Observer details:
926 Tenagra II Observatory.  Observers M. Schwartz, P. R. Holvorcem.  Measurer
    M. Schwartz.  0.81-m f/7 Ritchey-Chretien + CCD.
G96 Mt. Lemmon Survey.  Observer A. D. Grauer.  Measurers E. J. Christensen,
    D. C. Fuls, A. R. Gibbs, A. D. Grauer, J. A. Johnson, R. A. Kowalski,
    S. M. Larson, G. J. Leonard, R. G. Matheny, R. L. Seaman, F. C. Shelly.
    1.5-m reflector + 10K CCD.
H21 Astronomical Research Observatory, Westfield.  Observer R. Holmes.
    Measurers S. Foglia, L. Buzzi, T. Linder, R. Holmes.  1.3-m f/4.0
    astrograph + CCD.
I52 Steward Observatory, Mt. Lemmon Station.  Observer R. G. Matheny.
    Measurers E. J. Christensen, D. C. Fuls, A. R. Gibbs, A. D. Grauer,
    J. A. Johnson, R. A. Kowalski, S. M. Larson, G. J. Leonard, R. G. Matheny,
    R. L. Seaman, F. C. Shelly.  1.0-m reflector + CCD.
 
Orbital elements:
2017 TS6                                                 Earth MOID = 0.0299 AU
Epoch 2017 Sept. 4.0 TT = JDT 2458000.5                 MPC
M 346.97296              (2000.0)            P               Q
n   0.30596199     Peri.    4.06824     +0.91738132     -0.39784323
a   2.1811778      Node    19.38760     +0.36418184     +0.82740305
e   0.5293195      Incl.    1.98546     +0.16057115     +0.39638990
P   3.22           H   28.2           G   0.15           U   7
Residuals in seconds of arc
171015 G96  0.1-  0.3-    171015 G96  0.7-  0.1-    171016 926  1.1-  0.4-
171015 G96  0.6-  0.3-    171015 G96  0.4-  0.1-    171016 926  0.8-  0.5+
171015 G96 (2.0+  1.1+)   171015 I52 (2.8-  0.3-)   171016 926  0.4-  0.3+
171015 G96  0.8-  0.8-    171015 I52  0.7-  1.0-    171018 H21  0.3-  0.6-
171015 G96  0.7-  0.3-    171015 I52 (0.5+  2.0-)   171018 H21  0.4-  0.0
171015 G96  0.7-  0.1-    171015 I52 (0.6-  2.3-)   171018 H21  0.4-  0.2-

Ephemeris:
2017 TS6                 a,e,i = 2.18, 0.53, 2                   q = 1.0266
Date    TT    R. A. (2000) Decl.     Delta      r     Elong.  Phase     V
2017 09 19    21 10 26.0 -26 13 46   0.1036  1.0808   135.4    40.8    25.0
...
2017 10 04    22 12 40.8 -18 59 41   0.05103 1.0383   137.1    41.0    23.4
...
2017 10 12    00 08 06.9 -00 39 40   0.03144 1.0282   162.9    16.6    21.6
...
2017 10 18    02 33 52.6 +21 51 28   0.03211 1.0267   160.5    18.9    21.8
2017 10 19    02 56 55.0 +24 29 11   0.03380 1.0270   155.6    23.6    22.0
2017 10 20    03 18 16.6 +26 38 21   0.03583 1.0274   151.3    27.7    22.3
...
2017 10 26    04 48 22.6 +32 45 01   0.05251 1.0330   136.8    41.2    23.5
...
2017 11 03    05 41 27.8 +34 08 57   0.07989 1.0486   133.4    43.4    24.5
...
2017 11 18    06 07 59.1 +33 52 34   0.1362  1.0999   142.6    33.1    25.5

A. U. Tomatic                (C) Copyright 2017 MPC           M.P.E.C. 2017-U56



More information about the Iaude mailing list